Location: Ay?beleni
(36.6500°N, 30.3000°E)
Time: 04:29:04
(UTC+00:00)

SL-8 Rocket - Pass Details

Date: 16 October 2021
Orbit: 956 x 991 km, 82.9° (Epoch: 08 December)

Event Time Altitude Azimuth Distance (km) Brightness Sun altitude
Rises 15:35:34 0° 190° (S) 3,686 7.3 -3.7°
Reaches altitude 10° 15:38:05 10° 192° (SSW) 2,742 6.7 -4.2°
Maximum altitude 15:44:23 74° 277° (W) 1,032 4.4 -5.5°
Drops below altitude 10° 15:50:43 10° 3° (N) 2,756 6.3 -6.7°
Sets 15:53:15 0° 5° (N) 3,706 6.9 -7.2°
